This is the latest recevied weather packets stored in our database for station/object W4SKW. If no packets are shown the sender has not sent any weather packets the latest 10 day(s).
| Time | Temp. | Humidity | Pressure | Rain* | Wind** | Luminosity | Snow |
|---|---|---|---|---|---|---|---|
| 1777999412 | 23.89° C | 50% | 1016.8 hPa | 0 mm | - | 768 W/m² | - |
| 1777999110 | 24.44° C | 55% | 1016.7 hPa | 0 mm | - | 757 W/m² | - |
| 1777998809 | 24.44° C | 54% | 1016.8 hPa | 0 mm | - | 732 W/m² | - |
| 1777998507 | 23.89° C | 52% | 1016.8 hPa | 0 mm | - | 727 W/m² | - |
| 1777998202 | 23.89° C | 52% | 1016.7 hPa | 0 mm | - | 699 W/m² | - |
| 1777997900 | 23.33° C | 54% | 1016.8 hPa | 0 mm | - | 730 W/m² | - |
| 1777997597 | 22.78° C | 60% | 1016.5 hPa | 0 mm | - | 705 W/m² | - |
| 1777997294 | 22.78° C | 60% | 1016.5 hPa | 0 mm | - | 705 W/m² | - |
| 1777996992 | 22.78° C | 62% | 1016.5 hPa | 0 mm | - | 703 W/m² | - |
| 1777996688 | 22.78° C | 61% | 1016.6 hPa | 0 mm | - | 688 W/m² | - |
| 1777996384 | 22.78° C | 60% | 1016.6 hPa | 0 mm | - | 687 W/m² | - |
| 1777996081 | 22.22° C | 60% | 1016.7 hPa | 0 mm | - | 661 W/m² | - |
| 1777995777 | 21.67° C | 64% | 1016.9 hPa | 0 mm | - | 653 W/m² | - |
| 1777995473 | 21.11° C | 67% | 1017.1 hPa | 0 mm | - | 640 W/m² | - |
| 1777995171 | 21.11° C | 64% | 1017.1 hPa | 0 mm | - | 637 W/m² | - |
| 1777994867 | 20.56° C | 65% | 1017.1 hPa | 0 mm | - | 179 W/m² | - |
| 1777994564 | 20.56° C | 67% | 1017.3 hPa | 0 mm | - | 371 W/m² | - |
| 1777994258 | 20.56° C | 67% | 1017 hPa | 0 mm | - | 140 W/m² | - |
| 1777993956 | 20° C | 66% | 1016.9 hPa | 0 mm | - | 197 W/m² | - |
| 1777993652 | 20° C | 66% | 1016.9 hPa | 0 mm | - | 197 W/m² | - |
| 1777993349 | 19.44° C | 70% | 1016.9 hPa | 0 mm | - | 248 W/m² | - |
| 1777993044 | 19.44° C | 70% | 1016.9 hPa | 0 mm | - | 82 W/m² | - |
| 1777992743 | 18.89° C | 74% | 1017.1 hPa | 0 mm | - | 102 W/m² | - |
| 1777992440 | 18.89° C | 72% | 1017.1 hPa | 0 mm | - | 159 W/m² | - |
| 1777992139 | 18.89° C | 75% | 1017.4 hPa | 0 mm | - | 114 W/m² | - |
* Rain latest hour (hover to see other rain measurements)
** Current wind speed in m/s (hover to see current wind gust speed)